Camp Douglas, WI

3:46 PM CST on February 06, 2016 (GMT -0600)
Volk

Weather History for KVOK - March, 2013

Change the Weather History Date:

Thursday, March 7, 2013

  Actual Average Record
Temperature  
Mean Temperature 16 °F -  
Max Temperature 33 °F 31 °F 59 °F (2012)
Min Temperature -2 °F 19 °F -8 °F (2008)
Degree Days  
Heating Degree Days 50    
Moisture  
Dew Point 11 °F    
Average Humidity 72    
Maximum Humidity 93    
Minimum Humidity 44    
Precipitation  
Precipitation 0.00 in - - ()
Snow  
Snow 0.00 in - - ()
Snow Depth 7.00 in    
Sea Level Pressure  
Sea Level Pressure 30.41 in    
Wind  
Wind Speed 4 mph (SSW)    
Max Wind Speed 10 mph    
Max Gust Speed -    
Visibility 10 miles    
Events      
Averages and records for this station are not official NWS values.
T = Trace of Precipitation, MM = Missing Value Source: NWS Daily Summary

Daily Weather History Graph

Daily Weather History Graph

Search for Another Location

Airport or City:

Trip Planner

Search our weather history database for the weather conditions in past years. The results will help you decide how hot, cold, wet, or windy it might be!

Date:

Astronomy

Mar. 07, 2013 Rise Set
Actual Time 6:27 AM CST 5:57 PM CST
Civil Twilight 5:58 AM CST 6:26 PM CST
Nautical Twilight 5:25 AM CST 6:59 PM CST
Astronomical Twilight 4:51 AM CST 7:33 PM CST
Moon 3:34 AM CST (3/7) 1:38 PM CST (3/7)
Length of Visible Light 12h 28m
Length of Day
11h 30m
Waning Crescent, 20% of the Moon is Illuminated
Mar 7
Waning Crescent
Mar 11
New
Mar 19
First Quarter
Mar 27
Full
Apr 2
Last Quarter

Hourly Weather History & Observations

Time (CST) Temp. Windchill Dew Point Humidity Pressure Visibility Wind Dir Wind Speed Gust Speed Precip Events Conditions
12:55 AM 8.4 °F -1.6 °F 5.4 °F 87% 30.38 in 10.0 mi West 5.8 mph - N/A   Clear
1:55 AM 10.9 °F 0.2 °F 8.1 °F 88% 30.39 in 10.0 mi West 6.9 mph - N/A   Clear
2:55 AM 8.6 °F 0.1 °F 5.7 °F 88% 30.38 in 10.0 mi West 4.6 mph - N/A   Clear
3:55 AM 7.9 °F -0.7 °F 4.6 °F 87% 30.39 in 10.0 mi WNW 4.6 mph - N/A   Clear
4:55 AM 2.7 °F -4.8 °F -0.9 °F 85% 30.40 in 8.0 mi West 3.5 mph - N/A   Clear
5:55 AM 0.7 °F -9.1 °F -3.1 °F 84% 30.42 in 10.0 mi WNW 4.6 mph - N/A   Clear
6:55 AM -2.2 °F - -5.8 °F 85% 30.45 in 10.0 mi Calm Calm - N/A   Partly Cloudy
7:55 AM 6.8 °F - 5.0 °F 92% 30.45 in 10.0 mi Calm Calm - N/A   Scattered Clouds
8:55 AM 15.8 °F - 14.0 °F 93% 30.45 in 10.0 mi Calm Calm - N/A   Scattered Clouds
9:55 AM 21.2 °F - 15.8 °F 80% 30.45 in 10.0 mi Calm Calm - N/A   Scattered Clouds
10:55 AM 26.6 °F 21.2 °F 15.8 °F 64% 30.44 in 10.0 mi East 4.6 mph - N/A   Partly Cloudy
11:55 AM 30.2 °F - 17.6 °F 60% 30.43 in 10.0 mi Calm Calm - N/A   Scattered Clouds
12:55 PM 32.0 °F 27.5 °F 17.6 °F 55% 30.42 in 10.0 mi WSW 4.6 mph - N/A   Mostly Cloudy
1:55 PM 33.8 °F 30.8 °F 15.8 °F 48% 30.40 in 10.0 mi West 3.5 mph - N/A   Mostly Cloudy
2:55 PM 33.8 °F 30.8 °F 15.8 °F 48% 30.40 in 10.0 mi SSE 3.5 mph - N/A   Mostly Cloudy
3:55 PM 33.8 °F 30.8 °F 15.8 °F 48% 30.39 in 10.0 mi Variable 3.5 mph - N/A   Mostly Cloudy
4:55 PM 33.8 °F 28.6 °F 14.0 °F 44% 30.39 in 10.0 mi South 5.8 mph - N/A   Mostly Cloudy
5:55 PM 32.0 °F 27.5 °F 15.8 °F 51% 30.40 in 10.0 mi SSE 4.6 mph - N/A   Mostly Cloudy
6:55 PM 24.8 °F - 15.8 °F 69% 30.42 in 10.0 mi Calm Calm - N/A   Partly Cloudy
7:55 PM 19.4 °F - 12.2 °F 74% 30.43 in 10.0 mi Calm Calm - N/A   Partly Cloudy
8:55 PM 24.6 °F 16.7 °F 14.9 °F 67% 30.41 in 10.0 mi ESE 6.9 mph - N/A   Clear
9:55 PM 21.6 °F 10.6 °F 14.9 °F 76% 30.40 in 10.0 mi ESE 10.4 mph - N/A   Clear
10:55 PM 21.6 °F 15.3 °F 15.6 °F 78% 30.43 in 10.0 mi SE 4.6 mph - N/A   Clear
11:55 PM 14.9 °F 7.5 °F 11.3 °F 86% 30.43 in 10.0 mi SE 4.6 mph - N/A   Clear